Location: Wiesbaden
(50.0830°N, 8.2500°E)
Time: 21:04:24
(UTC+02:00)

ISS - Pass Details

Date: 22 April 2026
Orbit: 414 x 424 km, 51.6° (Epoch: 12 May)

Event Time Altitude Azimuth Distance (km) Brightness Sun altitude
Exits shadow 05:29:49 10° 223° (SW) 1,479 -1.6 -8.1°
Maximum altitude 05:32:58 43° 151° (SSE) 606 -3.0 -7.7°
Drops below altitude 10° 05:36:12 10° 79° (E) 1,508 0.5 -7.3°
Sets 05:38:22 0° 73° (ENE) 2,378 2.2 -7.0°
